Regional Weather Roundup
Issued by NWS

Home | Current Version | Previous Version | Text Only | Print | Product List | Glossary Off
Versions: 1 2 3 4 5 6 7 8 9 10 11 12 13 14 15 16 17 18 19 20 21 22 23 24 25 26 27 28 29 30 31 32 33 34 35 36 37 38 39 40 41 42 43 44 45 46 47 48 49 50

019
ASUS43 KOAX 231010
RWRNE

WEATHER ROUNDUP FOR NEBRASKA
NATIONAL WEATHER SERVICE OMAHA NE
400 AM CST THU NOV 23 2017

NOTES: SATELLITE DATA IS BEING USED TO AUGMENT CLOUD COVER ABOVE
       12000 FEET.
       "FAIR" INDICATES FEW OR NO CLOUDS BELOW 12,000 FEET WITH NO
       SIGNIFICANT WEATHER AND/OR OBSTRUCTIONS TO VISIBILITY.


NEZ001>004-019>022-054>056-231100-
NEBRASKA PANHANDLE

CITY           SKY/WX    TMP DP  RH WIND       PRES   REMARKS
SCOTTSBLUFF    CLOUDY    37  34  89 NW8       30.15F WCI  31
ALLIANCE       CLEAR     36  36 100 W9        30.12F WCI  29
CHADRON        CLEAR     37  35  92 SW6       30.10S WCI  32
GORDON         FAIR      44  37  78 W10       30.07F
KIMBALL        CLOUDY    49  38  67 NW17      30.19F
SIDNEY         CLOUDY    44  38  79 W13       30.17F
$$

NEZ057>060-069>072-079>082-231100-
SOUTHWEST NEBRASKA

CITY           SKY/WX    TMP DP  RH WIND       PRES   REMARKS
NORTH PLATTE   CLEAR     32  31  96 NW6       30.10F WCI  26
IMPERIAL       CLEAR     40  37  89 W6        30.14S
LEXINGTON      CLEAR     37  33  85 NW8       30.07S WCI  31
MCCOOK         CLEAR     39  35  86 W8        30.10S WCI  33
OGALLALA       CLEAR     45  38  77 SW8       30.13F
$$

NEZ005>010-023>029-035>040-094-231100-
NORTH CENTRAL NEBRASKA

CITY           SKY/WX    TMP DP  RH WIND       PRES   REMARKS
VALENTINE      CLEAR     37  33  85 W8        30.05S WCI  31
AINSWORTH      CLEAR     38  35  89 W8        30.04F WCI  32
BROKEN BOW     CLEAR     42  34  73 CALM      30.05F
O`NEILL        CLEAR     39  35  86 W6        30.03S WCI  35
ORD            CLEAR     34  31  88 NW9       30.03F WCI  27
THEDFORD       CLEAR     36  34  92 W6        30.08S WCI  31
$$

NEZ041-046>049-061>064-073>077-083>087-231100-
SOUTH CENTRAL NEBRASKA

CITY           SKY/WX    TMP DP  RH WIND       PRES   REMARKS
GRAND ISLAND   CLEAR     38  34  85 W8        30.04S WCI  32
AURORA         CLEAR     38  33  79 NW10      30.03S WCI  32
HASTINGS       CLEAR     40  33  76 W6        30.04S
HEBRON         CLEAR     37  26  66 W3        30.03S
HOLDREGE       CLEAR     41  35  79 W7        30.06F
KEARNEY        CLEAR     38  33  82 W8        30.06S WCI  32
YORK           CLEAR     41  36  81 NW13      30.02S
$$

NEZ011>018-030>034-042>045-231100-
NORTHEAST NEBRASKA

CITY           SKY/WX    TMP DP  RH WIND       PRES   REMARKS
NORFOLK        CLEAR     35  31  85 CALM      30.00S
ALBION         CLEAR     39  34  83 N7        30.02S WCI  34
BLAIR          CLEAR     37  26  62 W6        29.98S WCI  33
COLUMBUS       CLEAR     29  25  85 CALM      30.02R
FREMONT        CLEAR     31  27  82 W6        30.00R WCI  26
TEKAMAH        CLEAR     27  19  72 CALM      29.99S
WAYNE          CLEAR     37  33  88 NW5       30.01R WCI  33
$$

NEZ050>053-065>068-078-088>093-231100-
SOUTHEAST NEBRASKA

CITY           SKY/WX    TMP DP  RH WIND       PRES   REMARKS
LINCOLN        CLEAR     31  24  75 S5        30.02F WCI  26
OMAHA EPPLEY   CLEAR     30  21  69 SE5       30.00S WCI  25
BEATRICE       CLEAR     34  23  64 CALM      30.03R
FALLS CITY     CLEAR     34  22  61 SW5       30.01F WCI  30
NEBRASKA CITY  CLEAR     38  25  61 W10G16    30.00R WCI  31
PLATTSMOUTH    CLEAR     35  25  67 SW6       29.99F WCI  30
$$

NEZ044-045-051>053-067-231100-
OMAHA AREA

CITY           SKY/WX    TMP DP  RH WIND       PRES   REMARKS
OMAHA EPPLEY   CLEAR     30  21  69 SE5       30.00S WCI  25
BLAIR          CLEAR     37  26  62 W6        29.98S WCI  33
FREMONT        CLEAR     31  27  82 W6        30.00R WCI  26
MILLARD        CLEAR     31  23  72 CALM      29.99F
OFFUTT AFB     CLEAR     26  20  81 CALM      29.98F
PLATTSMOUTH    CLEAR     35  25  67 SW6       29.99F WCI  30
WAHOO          FAIR      31  23  71 NW3       30.00R
$$




USA.gov is the U.S. government's official web portal to all federal, state and local government web resources and services.